Weather History for Gainesville, GA

Change the Weather History Date:

Thursday, September 26, 2013

  Actual Average Record
Temperature  
Mean Temperature 67 °F 68 °F  
Max Temperature 75 °F 77 °F 90 °F (1933)
Min Temperature 59 °F 59 °F 44 °F (1950)
Degree Days  
Heating Degree Days 0 1  
Month to date heating degree days 2 6  
Since 1 July heating degree days 4 6  
Cooling Degree Days 2 4  
Month to date cooling degree days 215 201  
Year to date cooling degree days 1367 1527  
Growing Degree Days 17 (Base 50)    
Moisture  
Dew Point 59 °F    
Average Humidity 79    
Maximum Humidity 97    
Minimum Humidity 60    
Precipitation  
Precipitation 0.00 in 0.16 in 3.39 in (1956)
Month to date precipitation 1.86 4.06  
Year to date precipitation 40.31  
Sea Level Pressure  
Sea Level Pressure 29.96 in    
Wind  
Wind Speed 4 mph (East)    
Max Wind Speed 9 mph    
Max Gust Speed 13 mph    
Visibility 8 miles    
Events      
T = Trace of Precipitation, MM = Missing Value Source: NWS Daily Summary

Daily Weather History Graph

Daily Weather History Graph

Search for Another Location

Airport:

Trip Planner

Search our weather history database for the weather conditions in past years. The results will help you decide how hot, cold, wet, or windy it might be!

Date:

Astronomy

Sep. 26, 2013 Rise Set
Actual Time 7:26 AM EDT 7:26 PM EDT
Civil Twilight 7:01 AM EDT 7:51 PM EDT
Nautical Twilight 6:32 AM EDT 8:20 PM EDT
Astronomical Twilight 6:02 AM EDT 8:49 PM EDT
Moon No Moon Rise 2:04 PM EDT (9/26)
Length of Visible Light 12h 49m
Length of Day
11h 59m
Waning Gibbous, 55% of the Moon is Illuminated
Sep 26
Waning Gibbous
Sep 26
Last Quarter
Oct 4
New
Oct 11
First Quarter
Oct 18
Full

Hourly Weather History & Observations

Time (EDT) Temp. Dew Point Humidity Pressure Visibility Wind Dir Wind Speed Gust Speed Precip Events Conditions
12:53 AM 61.0 °F 57.9 °F 90% 29.90 in 6.0 mi ENE 5.8 mph - N/A   Overcast
1:00 AM 60.8 °F 57.2 °F 88% 29.93 in 6.0 mi NE 5.8 mph - N/A   Overcast
1:53 AM 61.0 °F 59.0 °F 93% 29.90 in 4.0 mi NE 4.6 mph - N/A   Overcast
2:09 AM 60.8 °F 59.0 °F 94% 29.93 in 4.0 mi Calm Calm - N/A   Overcast
2:40 AM 60.8 °F 59.0 °F 94% 29.93 in 5.0 mi NE 3.5 mph - N/A   Overcast
2:53 AM 61.0 °F 59.0 °F 93% 29.90 in 5.0 mi ENE 4.6 mph - N/A   Overcast
3:53 AM 61.0 °F 59.0 °F 93% 29.89 in 5.0 mi ENE 5.8 mph - N/A   Overcast
4:53 AM 60.1 °F 57.9 °F 93% 29.89 in 6.0 mi NE 3.5 mph - N/A   Partly Cloudy
5:53 AM 60.1 °F 57.0 °F 90% 29.91 in 3.0 mi Calm Calm - N/A   Clear
6:53 AM 59.0 °F 57.0 °F 93% 29.93 in 5.0 mi NNE 3.5 mph - N/A   Clear
7:37 AM 59.0 °F 57.2 °F 94% 29.96 in 2.5 mi Calm Calm - N/A   Clear
7:50 AM 59.0 °F 57.2 °F 94% 29.97 in 3.0 mi Calm Calm - N/A   Clear
7:53 AM 59.0 °F 57.0 °F 93% 29.95 in 3.0 mi NNE 3.5 mph - N/A   Clear
8:53 AM 64.0 °F 57.9 °F 80% 29.97 in 5.0 mi Calm Calm - N/A   Haze
9:53 AM 64.9 °F 59.0 °F 81% 29.99 in 9.0 mi East 5.8 mph - N/A   Scattered Clouds
10:07 AM 66.2 °F 59.0 °F 78% 30.02 in 9.0 mi ENE 6.9 mph - N/A   Mostly Cloudy
10:38 AM 66.2 °F 59.0 °F 78% 30.02 in 9.0 mi East 8.1 mph - N/A   Mostly Cloudy
10:53 AM 68.0 °F 59.0 °F 73% 29.99 in 9.0 mi East 6.9 mph - N/A   Mostly Cloudy
11:04 AM 66.2 °F 57.2 °F 73% 30.02 in 9.0 mi East 6.9 mph - N/A   Scattered Clouds
11:11 AM 66.2 °F 57.2 °F 73% 30.02 in 9.0 mi ESE 5.8 mph - N/A   Mostly Cloudy
11:53 AM 69.1 °F 57.9 °F 68% 29.99 in 10.0 mi Variable 5.8 mph - N/A   Mostly Cloudy
12:53 PM 72.0 °F 59.0 °F 64% 29.98 in 10.0 mi East 3.5 mph - N/A   Overcast
1:53 PM 72.0 °F 59.0 °F 64% 29.97 in 10.0 mi Variable 4.6 mph - N/A   Overcast
2:38 PM 73.4 °F 60.8 °F 65% 29.99 in 10.0 mi Variable 5.8 mph - N/A   Overcast
2:53 PM 73.0 °F 60.1 °F 64% 29.95 in 10.0 mi SSE 4.6 mph - N/A   Mostly Cloudy
3:53 PM 73.0 °F 60.1 °F 64% 29.95 in 10.0 mi South 3.5 mph - N/A   Partly Cloudy
4:29 PM 73.4 °F 60.8 °F 65% 29.98 in 10.0 mi Calm Calm - N/A   Mostly Cloudy
4:53 PM 75.0 °F 60.1 °F 60% 29.95 in 10.0 mi East 5.8 mph - N/A   Mostly Cloudy
5:53 PM 73.0 °F 60.1 °F 64% 29.96 in 10.0 mi SE 6.9 mph - N/A   Clear
6:53 PM 71.1 °F 60.1 °F 68% 29.97 in 10.0 mi ESE 4.6 mph - N/A   Clear
7:53 PM 69.1 °F 60.1 °F 73% 29.98 in 10.0 mi SE 3.5 mph - N/A   Mostly Cloudy
8:53 PM 69.1 °F 60.1 °F 73% 30.00 in 10.0 mi ESE 3.5 mph - N/A   Overcast
9:53 PM 68.0 °F 60.1 °F 76% 30.01 in 10.0 mi East 4.6 mph - N/A   Overcast
10:53 PM 68.0 °F 61.0 °F 78% 30.02 in 10.0 mi Calm Calm - N/A   Overcast
11:53 PM 66.9 °F 60.1 °F 79% 30.03 in 10.0 mi ENE 5.8 mph - N/A   Overcast